Regional Weather Roundup
Issued by NWS

Home | Current Version | Previous Version | Graphics & Text | Print | Product List | Glossary On
Versions: 1 2 3 4 5 6 7 8 9 10 11 12 13 14 15 16 17 18 19 20 21 22 23 24 25 26 27 28 29 30 31 32 33 34 35 36 37 38 39 40 41 42 43 44 45 46 47 48 49 50
000
ASUS43 KLMK 161002
RWRKY
KENTUCKY REGIONAL WEATHER ROUNDUP
NATIONAL WEATHER SERVICE LOUISVILLE KY
600 AM EDT TUE SEP 16 2014

NOTE "FAIR" INDICATES FEW OR NO CLOUDS BELOW 12,000 FEET
WITH NO SIGNIFICANT WEATHER AND/OR OBSTRUCTIONS TO VISIBILITY.

KYZ001>023-026-027-061>063-070>075-161100-
WESTERN AND SOUTH CENTRAL KENTUCKY

CITY           SKY/WX    TMP DP  RH WIND       PRES   REMARKS
PADUCAH        CLOUDY    65  60  84 N10       30.13R
HENDERSON      CLOUDY    61  55  82 N8        30.14R
OWENSBORO      CLOUDY    63  60  90 N7        30.13R
HOPKINSVILLE   CLOUDY    67  67  99 NW7       30.10R
BOWLING GREEN  CLOUDY    67  62  84 W3        30.09S
GLASGOW        LGT RAIN  66  64  91 W3        30.10R
$$

KYZ024-025-028>034-038-045-046-053-161100-
NORTH CENTRAL KENTUCKY

CITY           SKY/WX    TMP DP  RH WIND       PRES   REMARKS
LOUISVILLE/SDF CLOUDY    63  59  87 N13       30.10R
LOUISVILLE/LOU CLOUDY    62  60  93 NW6       30.10R FOG
FORT KNOX      CLOUDY    64  62  93 NW10      30.09R
$$

KYZ035>037-039>044-047>052-055>060-089>105-161100-
NORTHEAST KENTUCKY

CITY           SKY/WX    TMP DP  RH WIND       PRES   REMARKS
LEXINGTON      CLOUDY    64  61  90 N5        30.09R FOG
COVINGTON      CLOUDY    59  56  89 NE8       30.11R FOG
FRANKFORT      CLOUDY    61  60  97 N5        30.09R
$$

KYZ054-064>069-076>088-106>120-161100-
SOUTHEAST KENTUCKY

CITY           SKY/WX    TMP DP  RH WIND       PRES   REMARKS
JACKSON        CLOUDY    62  60  93 CALM      30.10S FOG
LONDON         CLOUDY    67  61  81 SW5       30.11R
SOMERSET       NOT AVBL
MIDDLESBORO    CLOUDY    63  63  98 CALM      30.11S
MONTICELLO     CLOUDY    67  63  87 CALM      30.12R
$$



USA.gov is the U.S. government's official web portal to all federal, state and local government web resources and services.